DELTA 1 DEB, 10201

Orbit data source: Space-Track

DELTA 1 DEB, 10201 is space debris in LEO originally from a launch on Thu, 14 Jul 1977 UTC launched from the Air Force Eastern Test Range (AFETR). Debris objects in space refer to the collection of defunct objects orbiting the Earth. Examples of debris include non-operational satellites, rocket bodies, and fragments generated from explosions, collisions, or faulty payload assembly.

Loading next visibility...
Identifier
10201, 1977-065AE
Orbit
LEO
Last TLE update
23 hours ago
Origin
Manufacturer
Unknown
Mission
Spacecraft
Bus & Motor
Unknown
Mass
Unknown
Launch date (UTC)
1977-07-14 (48 years ago)
Launch vehicle
Unknown
Launch site
Air Force Eastern Test Range (AFETR)
Object type
Payload
Rocket body
Debris
Shape & HBR
Unknown
Radar Cross Section
Medium (>0.1 m² and <1 m²)

Expand to show TLE details & history

TLE from 23 hours ago
0 DELTA 1 DEB
1 10201U 77065AE  25128.32986797  .00001388  00000-0  24262-3 0  9997
2 10201  29.0931  12.3990 0672276 268.4427  83.9085 13.73262015352785
Epoch: 2025-05-08T07:55Z
Definitive object data (Epoch: 2025-05-08T07:55:00.592Z)
Latitude
-0.00003°
Longitude
27.24456°
Altitude
966.928 km
Speed
7.38 km/s
True Right ascension
00h 49m 35s
True Declination
0° 00' 00"
Sunlit
Object was in daylight at TLE epoch
Visualization TLE readout
Latitude
29.16452°
Longitude
108.58003°
Altitude
1,473.803 km
Speed
6.892 km/s
Apparent Right ascension
04h 59m 30s
Apparent Declination
-1° 23' 10"
Sunlit
Object is in daylight
Visualization observer readout
Local Sidereal Time
15:11:51
Azimuth
320.729° NNW
Elevation
-44.365°
Doppler factor
1
Orbital elements
Apogee altitude
1,487.236 km
Perigee altitude
496.313 km
Semi-major axis
7,369.911 km
Eccentricity
0.0672276
Inclination
29.0931°
RAAN
12.399°
Arg. of periapsis
268.4427°
True anomaly
91.6143°
Mean anomaly
83.9085°
Eccentric anomaly
87.75741°
Mean motion
3.43044 °/min
BSTAR
0.00024262
Orbital period
104.94 mins
Loading maneuver chart data...
Loading SW <> Apogee altitude chart data...
Loading historical data...
Loading historical data...
Loading historical data...
Loading historical data...
Loading historical data...
Loading historical data...
Loading historical data...

DELTA 1 DEB Visibility forecast

Observer location: undefined°, undefined°

Span
Click to sort rows by Start time (UTC) header in descending order
Start Az.
Max El. time (UTC)
Max El. Az.
Max El.
End time (UTC)
End Az.
12 mins2025-05-09 18:59:55.213Z200.575° SSW2025-05-09 19:05:55.213Z150.665° SSE21.145°2025-05-09 19:11:55.213Z108.254° ESE
14 mins2025-05-09 20:50:55.213Z226.654° WSW2025-05-09 20:56:55.213Z169.248° S31.931°2025-05-09 21:04:55.213Z107.598° ESE
15 mins2025-05-09 22:41:55.213Z246.019° WSW2025-05-09 22:48:55.213Z182.917° SSW33.306°2025-05-09 22:56:55.213Z121.304° SE
13 mins2025-05-10 00:33:55.213Z250.403° W2025-05-10 00:39:55.213Z206.132° SW25.383°2025-05-10 00:46:55.213Z150.12° SSE
|